Change the Weather History Date:

Thursday, January 9, 2014

  Actual Average Record
Temperature  
Mean Temperature 35 °F -  
Max Temperature 37 °F 42 °F 72 °F (2002)
Min Temperature 33 °F 19 °F -4 °F (1973)
Degree Days  
Heating Degree Days 30    
Moisture  
Dew Point 32 °F    
Average Humidity 89    
Maximum Humidity 96    
Minimum Humidity 86    
Precipitation  
Precipitation 0.00 in - - ()
Sea Level Pressure  
Sea Level Pressure 30.16 in    
Wind  
Wind Speed 5 mph (SE)    
Max Wind Speed 13 mph    
Max Gust Speed -    
Visibility 5 miles    
Events      
Averages and records for this station are not official NWS values.
T = Trace of Precipitation, MM = Missing Value Source: NWS Daily Summary

Daily Weather History Graph

Daily Weather History Graph

Search for Another Location

Airport or City:

Trip Planner

Search our weather history database for the weather conditions in past years. The results will help you decide how hot, cold, wet, or windy it might be!

Date:

Astronomy

Jan. 09, 2014 Rise Set
Actual Time 7:41 AM CST 5:30 PM CST
Civil Twilight 7:12 AM CST 5:58 PM CST
Nautical Twilight 6:40 AM CST 6:30 PM CST
Astronomical Twilight 6:09 AM CST 7:02 PM CST
Moon 12:54 PM CST (1/9) 1:54 AM CST (1/9)
Length of Visible Light 10h 45m
Length of Day
9h 48m
Waxing Gibbous, 66% of the Moon is Illuminated
Jan 9
Waxing Gibbous
Jan 15
Full
Jan 23
Last Quarter
Jan 30
New
Feb 6
First Quarter

Hourly Weather History & Observations

Time (CST) Temp. Windchill Dew Point Humidity Pressure Visibility Wind Dir Wind Speed Gust Speed Precip Events Conditions
12:20 AM 33.8 °F 28.6 °F 30.2 °F 87% 30.25 in 8.0 mi ESE 5.8 mph - N/A   Overcast
12:46 AM 33.8 °F 29.6 °F 30.2 °F 87% 30.24 in 3.0 mi ESE 4.6 mph - N/A   Overcast
12:53 AM 33.1 °F 28.7 °F 32.0 °F 96% 30.25 in 1.8 mi ESE 4.6 mph - N/A   Overcast
1:38 AM 33.8 °F 30.8 °F 30.2 °F 87% 30.23 in 3.0 mi East 3.5 mph - N/A   Overcast
1:53 AM 33.1 °F - 30.9 °F 92% 30.24 in 7.0 mi Calm Calm - N/A   Overcast
2:04 AM 33.8 °F 30.8 °F 30.2 °F 87% 30.22 in 7.0 mi NE 3.5 mph - N/A   Overcast
2:29 AM 33.8 °F 30.8 °F 30.2 °F 87% 30.22 in 3.0 mi Variable 3.5 mph - N/A   Overcast
2:36 AM 33.8 °F 29.6 °F 30.2 °F 87% 30.21 in 2.5 mi ENE 4.6 mph - N/A   Overcast
2:45 AM 33.8 °F 29.6 °F 30.2 °F 87% 30.22 in 5.0 mi SE 4.6 mph - N/A   Overcast
2:53 AM 33.1 °F 28.7 °F 30.9 °F 92% 30.24 in 5.0 mi SE 4.6 mph - N/A   Overcast
3:53 AM 33.1 °F 30.0 °F 30.9 °F 92% 30.24 in 8.0 mi SE 3.5 mph - N/A   Overcast
4:53 AM 33.1 °F 28.7 °F 30.0 °F 89% 30.23 in 9.0 mi ESE 4.6 mph - N/A   Overcast
5:16 AM 33.8 °F 30.8 °F 30.2 °F 87% 30.20 in 6.0 mi ESE 3.5 mph - N/A   Overcast
5:53 AM 33.1 °F 30.0 °F 30.0 °F 89% 30.22 in 6.0 mi ESE 3.5 mph - N/A   Overcast
6:53 AM 33.1 °F - 30.0 °F 89% 30.22 in 5.0 mi Calm Calm - N/A   Overcast
7:08 AM 33.8 °F 30.8 °F 30.2 °F 87% 30.20 in 1.8 mi ESE 3.5 mph - N/A   Overcast
7:31 AM 33.8 °F 30.8 °F 30.2 °F 87% 30.20 in 3.0 mi ESE 3.5 mph - N/A   Overcast
7:53 AM 33.1 °F 27.7 °F 30.0 °F 89% 30.23 in 6.0 mi ESE 5.8 mph - N/A   Overcast
8:14 AM 33.8 °F - 30.2 °F 87% 30.21 in 2.0 mi Calm Calm - N/A   Overcast
8:25 AM 33.8 °F 28.6 °F 30.2 °F 87% 30.21 in 4.0 mi SE 5.8 mph - N/A   Overcast
8:50 AM 33.8 °F 27.7 °F 30.2 °F 87% 30.21 in 1.5 mi SE 6.9 mph - N/A   Overcast
8:53 AM 33.1 °F 26.9 °F 30.9 °F 92% 30.23 in 0.8 mi SE 6.9 mph - N/A   Overcast
9:05 AM 33.8 °F 27.7 °F 30.2 °F 87% 30.22 in 2.0 mi SE 6.9 mph - N/A   Overcast
9:13 AM 33.8 °F 28.6 °F 30.2 °F 87% 30.22 in 6.0 mi ESE 5.8 mph - N/A   Overcast
9:53 AM 34.0 °F 28.0 °F 30.9 °F 89% 30.24 in 8.0 mi SSE 6.9 mph - N/A   Overcast
10:53 AM 34.0 °F 28.0 °F 32.0 °F 92% 30.23 in 6.0 mi SE 6.9 mph - N/A   Overcast
11:34 AM 35.6 °F 29.9 °F 32.0 °F 87% 30.19 in 7.0 mi SE 6.9 mph - N/A   Overcast
11:53 AM 35.1 °F 30.1 °F 32.0 °F 89% 30.20 in 6.0 mi SSE 5.8 mph - N/A   Overcast
12:53 PM 35.1 °F 31.0 °F 32.0 °F 89% 30.15 in 5.0 mi South 4.6 mph - N/A   Overcast
1:13 PM 35.6 °F 31.7 °F 32.0 °F 87% 30.11 in 4.0 mi South 4.6 mph - N/A   Overcast
2:39 PM 35.6 °F 30.7 °F 33.8 °F 93% 30.09 in 6.0 mi South 5.8 mph - N/A   Overcast
2:53 PM 37.0 °F 32.4 °F 33.1 °F 86% 30.11 in 6.0 mi South 5.8 mph - N/A   Overcast
3:53 PM 37.0 °F 31.0 °F 33.1 °F 86% 30.09 in 6.0 mi SSE 8.1 mph - N/A   Overcast
5:53 PM 37.0 °F 30.4 °F 33.1 °F 86% 30.06 in 6.0 mi SSE 9.2 mph - N/A   Overcast
6:53 PM 37.0 °F 31.6 °F 34.0 °F 89% 30.06 in 5.0 mi SE 6.9 mph - N/A   Overcast
7:26 PM 37.4 °F 32.1 °F 33.8 °F 87% 30.04 in 4.0 mi SSE 6.9 mph - N/A   Overcast
7:53 PM 37.0 °F 31.6 °F 34.0 °F 89% 30.06 in 4.0 mi SSE 6.9 mph - N/A   Overcast
8:19 PM 37.4 °F 31.4 °F 33.8 °F 87% 30.03 in 5.0 mi SE 8.1 mph - N/A   Overcast
8:38 PM 37.4 °F 31.4 °F 33.8 °F 87% 30.04 in 2.5 mi SSE 8.1 mph - N/A   Overcast
8:53 PM 37.0 °F 29.3 °F 34.0 °F 89% 30.05 in 2.5 mi SSE 11.5 mph - N/A   Overcast
9:31 PM 37.4 °F 29.3 °F 33.8 °F 87% 30.03 in 3.0 mi SSE 12.7 mph - N/A   Overcast
9:53 PM 37.0 °F 29.3 °F 34.0 °F 89% 30.04 in 3.0 mi SSE 11.5 mph - N/A   Overcast
10:53 PM 37.0 °F 28.9 °F 34.0 °F 89% 30.01 in 3.0 mi SSE 12.7 mph - N/A   Overcast
11:53 PM 37.0 °F 29.3 °F 35.1 °F 93% 29.98 in 3.0 mi SSE 11.5 mph - N/A   Overcast